Time,TemperatureF,DewpointF,PressureIn,WindDirection,WindDirectionDegrees,WindSpeedMPH,WindSpeedGustMPH,Humidity,HourlyPrecipIn,Conditions,Clouds,dailyrainin,SoftwareType,DateUTC
2013-01-26 00:00:00,59.2,56.6,30.00,North,360,0.0,0.0,91,0.00,,---,0.00,VWS V14.01,2013-01-26 08:00:00,
2013-01-26 00:05:00,59.1,56.5,30.00,North,360,0.0,0.0,91,0.00,,---,0.00,VWS V14.01,2013-01-26 08:05:00,
2013-01-26 00:10:00,59.1,56.5,29.99,North,360,0.0,0.0,91,0.00,,---,0.00,VWS V14.01,2013-01-26 08:10:00,
2013-01-26 00:15:00,59.1,56.8,29.99,North,360,0.0,1.0,92,0.00,,---,0.00,VWS V14.01,2013-01-26 08:15:00,
2013-01-26 00:20:00,59.1,56.8,29.98,North,360,0.0,1.0,92,0.00,,---,0.00,VWS V14.01,2013-01-26 08:20:00,
2013-01-26 00:25:00,59.1,56.8,29.98,North,360,0.0,1.0,92,0.00,,---,0.00,VWS V14.01,2013-01-26 08:25:00,
2013-01-26 00:30:00,59.0,57.0,29.98,North,360,0.0,1.0,93,0.00,,---,0.00,VWS V14.01,2013-01-26 08:30:00,
2013-01-26 00:35:00,59.1,57.1,29.98,NW,325,2.0,2.0,93,0.00,,---,0.00,VWS V14.01,2013-01-26 08:35:00,
2013-01-26 00:40:00,59.1,56.8,29.98,NNW,339,0.0,2.0,92,0.00,,---,0.00,VWS V14.01,2013-01-26 08:40:00,
2013-01-26 00:45:00,59.1,56.8,29.98,NNW,339,0.0,2.0,92,0.00,,---,0.00,VWS V14.01,2013-01-26 08:45:00,
2013-01-26 00:50:00,59.1,56.8,29.99,NNW,339,0.0,2.0,92,0.00,,---,0.00,VWS V14.01,2013-01-26 08:50:00,
2013-01-26 00:55:00,59.0,57.6,29.99,SW,223,0.0,2.0,95,0.00,,---,0.00,VWS V14.01,2013-01-26 08:55:00,
2013-01-26 01:00:00,58.9,56.9,29.99,SW,223,0.0,0.0,93,0.00,,---,0.00,VWS V14.01,2013-01-26 09:00:00,
2013-01-26 01:05:00,58.8,56.8,29.99,SW,223,0.0,0.0,93,0.00,,---,0.00,VWS V14.01,2013-01-26 09:05:00,
2013-01-26 01:10:00,58.7,56.7,29.99,SW,223,0.0,0.0,93,0.00,,---,0.00,VWS V14.01,2013-01-26 09:10:00,
2013-01-26 01:15:00,58.7,57.0,29.98,SW,223,0.0,1.0,94,0.00,,---,0.00,VWS V14.01,2013-01-26 09:15:00,
2013-01-26 01:20:00,58.7,57.0,29.99,SW,223,0.0,1.0,94,0.00,,---,0.00,VWS V14.01,2013-01-26 09:20:00,
2013-01-26 01:25:00,58.7,56.7,29.99,SW,223,0.0,1.0,93,0.00,,---,0.00,VWS V14.01,2013-01-26 09:25:00,
2013-01-26 01:30:00,58.7,56.7,29.99,SW,223,0.0,0.0,93,0.00,,---,0.00,VWS V14.01,2013-01-26 09:30:00,
2013-01-26 01:35:00,58.6,56.9,29.99,SW,223,0.0,0.0,94,0.00,,---,0.00,VWS V14.01,2013-01-26 09:35:00,
2013-01-26 01:40:00,58.6,56.9,29.98,SW,223,0.0,1.0,94,0.00,,---,0.00,VWS V14.01,2013-01-26 09:40:00,
2013-01-26 01:45:00,58.6,56.9,29.98,SW,223,0.0,1.0,94,0.00,,---,0.00,VWS V14.01,2013-01-26 09:45:00,
2013-01-26 01:50:00,58.6,56.9,29.98,SW,223,0.0,1.0,94,0.00,,---,0.00,VWS V14.01,2013-01-26 09:50:00,
2013-01-26 01:55:00,58.6,56.9,29.98,SW,223,0.0,1.0,94,0.00,,---,0.00,VWS V14.01,2013-01-26 09:55:00,
2013-01-26 02:00:00,58.7,57.0,29.98,SW,223,0.0,0.0,94,0.00,,---,0.00,VWS V14.01,2013-01-26 10:00:00,
2013-01-26 02:05:00,58.6,56.9,29.98,SW,223,0.0,0.0,94,0.00,,---,0.00,VWS V14.01,2013-01-26 10:05:00,
2013-01-26 02:10:00,58.5,56.8,29.97,SW,223,0.0,0.0,94,0.00,,---,0.00,VWS V14.01,2013-01-26 10:10:00,
2013-01-26 02:15:00,58.5,56.8,29.97,SW,223,0.0,0.0,94,0.00,,---,0.00,VWS V14.01,2013-01-26 10:15:00,
2013-01-26 02:20:00,58.4,56.7,29.97,SW,223,0.0,0.0,94,0.00,,---,0.00,VWS V14.01,2013-01-26 10:20:00,
2013-01-26 02:25:00,58.4,56.7,29.97,SW,223,0.0,0.0,94,0.00,,---,0.00,VWS V14.01,2013-01-26 10:25:00,
2013-01-26 02:30:00,58.3,56.6,29.97,NNW,327,0.0,1.0,94,0.00,,---,0.00,VWS V14.01,2013-01-26 10:30:00,
2013-01-26 02:35:00,58.4,56.7,29.97,NNE,12,0.0,3.0,94,0.00,,---,0.00,VWS V14.01,2013-01-26 10:35:00,
2013-01-26 02:40:00,58.5,56.8,29.97,NNE,12,0.0,3.0,94,0.00,,---,0.00,VWS V14.01,2013-01-26 10:40:00,
2013-01-26 02:45:00,58.6,56.9,29.97,NNE,12,0.0,3.0,94,0.00,,---,0.00,VWS V14.01,2013-01-26 10:45:00,
2013-01-26 02:50:00,58.6,56.9,29.97,NNE,12,0.0,3.0,94,0.00,,---,0.00,VWS V14.01,2013-01-26 10:50:00,
2013-01-26 02:55:00,58.6,56.9,29.97,NNE,12,0.0,3.0,94,0.00,,---,0.00,VWS V14.01,2013-01-26 10:55:00,
2013-01-26 03:00:00,58.6,56.9,29.97,NNE,12,0.0,0.0,94,0.00,,---,0.00,VWS V14.01,2013-01-26 11:00:00,
2013-01-26 03:05:00,58.5,56.8,29.96,SSE,164,0.0,2.0,94,0.00,,---,0.00,VWS V14.01,2013-01-26 11:05:00,
2013-01-26 03:10:00,58.5,56.8,29.96,SSE,164,0.0,2.0,94,0.00,,---,0.00,VWS V14.01,2013-01-26 11:10:00,
2013-01-26 03:15:00,58.4,57.0,29.96,SSE,164,0.0,2.0,95,0.00,,---,0.00,VWS V14.01,2013-01-26 11:15:00,
2013-01-26 03:20:00,58.4,57.0,29.96,SSE,164,0.0,2.0,95,0.00,,---,0.00,VWS V14.01,2013-01-26 11:20:00,
2013-01-26 03:25:00,58.3,56.9,29.95,SSE,164,0.0,2.0,95,0.00,,---,0.00,VWS V14.01,2013-01-26 11:25:00,
2013-01-26 03:30:00,58.2,56.8,29.96,SSE,164,0.0,0.0,95,0.00,,---,0.00,VWS V14.01,2013-01-26 11:30:00,
2013-01-26 03:35:00,58.1,56.7,29.96,SSE,164,0.0,0.0,95,0.00,,---,0.00,VWS V14.01,2013-01-26 11:35:00,
2013-01-26 03:40:00,58.1,56.7,29.95,SSE,164,0.0,0.0,95,0.00,,---,0.00,VWS V14.01,2013-01-26 11:40:00,
2013-01-26 03:45:00,58.0,56.6,29.95,SSE,164,0.0,0.0,95,0.00,,---,0.00,VWS V14.01,2013-01-26 11:45:00,
2013-01-26 03:50:00,58.0,56.6,29.95,SSE,164,0.0,0.0,95,0.00,,---,0.00,VWS V14.01,2013-01-26 11:50:00,
2013-01-26 03:55:00,58.0,56.6,29.95,SSE,164,0.0,0.0,95,0.00,,---,0.00,VWS V14.01,2013-01-26 11:55:00,
2013-01-26 04:00:00,58.0,56.6,29.95,SSE,164,0.0,0.0,95,0.00,,---,0.00,VWS V14.01,2013-01-26 12:00:00,
2013-01-26 04:05:00,58.0,56.6,29.95,SSE,164,0.0,0.0,95,0.00,,---,0.00,VWS V14.01,2013-01-26 12:05:00,
2013-01-26 04:10:00,57.9,56.8,29.94,SSE,164,0.0,1.0,96,0.00,,---,0.00,VWS V14.01,2013-01-26 12:10:00,
2013-01-26 04:15:00,57.9,56.8,29.94,SSE,164,0.0,1.0,96,0.00,,---,0.00,VWS V14.01,2013-01-26 12:15:00,
2013-01-26 04:20:00,57.9,56.8,29.94,SSE,164,0.0,1.0,96,0.00,,---,0.00,VWS V14.01,2013-01-26 12:20:00,
2013-01-26 04:25:00,57.9,56.8,29.94,SSE,164,0.0,1.0,96,0.00,,---,0.00,VWS V14.01,2013-01-26 12:25:00,
2013-01-26 04:30:00,57.9,56.8,29.94,SSE,164,0.0,0.0,96,0.00,,---,0.00,VWS V14.01,2013-01-26 12:30:00,
2013-01-26 04:35:00,57.9,56.8,29.94,SSE,164,0.0,0.0,96,0.00,,---,0.00,VWS V14.01,2013-01-26 12:35:00,
2013-01-26 04:40:00,57.8,56.7,29.94,SSE,164,0.0,0.0,96,0.00,,---,0.00,VWS V14.01,2013-01-26 12:40:00,
2013-01-26 04:45:00,57.8,56.7,29.94,SSE,164,0.0,0.0,96,0.00,,---,0.00,VWS V14.01,2013-01-26 12:45:00,
2013-01-26 04:50:00,57.7,56.3,29.94,SSE,164,0.0,0.0,95,0.00,,---,0.00,VWS V14.01,2013-01-26 12:50:00,
2013-01-26 04:55:00,57.7,56.6,29.94,SSE,164,0.0,0.0,96,0.00,,---,0.00,VWS V14.01,2013-01-26 12:55:00,
2013-01-26 05:00:00,57.6,56.5,29.95,SSE,164,0.0,0.0,96,0.00,,---,0.00,VWS V14.01,2013-01-26 13:00:00,
2013-01-26 05:05:00,57.6,56.5,29.94,SSE,164,0.0,0.0,96,0.00,,---,0.00,VWS V14.01,2013-01-26 13:05:00,
2013-01-26 05:10:00,57.6,56.5,29.95,SSE,164,0.0,0.0,96,0.00,,---,0.00,VWS V14.01,2013-01-26 13:10:00,
2013-01-26 05:15:00,57.5,56.4,29.95,SSE,164,0.0,0.0,96,0.00,,---,0.00,VWS V14.01,2013-01-26 13:15:00,
2013-01-26 05:20:00,57.5,56.4,29.95,SSE,164,0.0,0.0,96,0.00,,---,0.00,VWS V14.01,2013-01-26 13:20:00,
2013-01-26 05:25:00,57.6,56.5,29.95,SSE,164,0.0,0.0,96,0.00,,---,0.00,VWS V14.01,2013-01-26 13:25:00,
2013-01-26 05:30:00,57.6,56.5,29.95,SSE,164,0.0,0.0,96,0.00,,---,0.00,VWS V14.01,2013-01-26 13:30:00,
2013-01-26 05:35:00,57.7,56.6,29.94,SSE,164,0.0,0.0,96,0.00,,---,0.00,VWS V14.01,2013-01-26 13:35:00,
2013-01-26 05:40:00,57.8,56.7,29.95,SSE,164,0.0,0.0,96,0.00,,---,0.00,VWS V14.01,2013-01-26 13:40:00,
2013-01-26 05:45:00,57.7,56.6,29.94,SSE,164,0.0,0.0,96,0.00,,---,0.00,VWS V14.01,2013-01-26 13:45:00,
2013-01-26 05:50:00,57.7,56.6,29.94,SSE,164,0.0,0.0,96,0.00,,---,0.00,VWS V14.01,2013-01-26 13:50:00,
2013-01-26 05:55:00,57.7,56.6,29.94,SSE,164,0.0,0.0,96,0.00,,---,0.00,VWS V14.01,2013-01-26 13:55:00,
2013-01-26 06:00:00,57.8,56.7,29.95,SSE,164,0.0,0.0,96,0.00,,---,0.00,VWS V14.01,2013-01-26 14:00:00,
2013-01-26 06:05:00,57.7,56.6,29.95,SSE,164,0.0,0.0,96,0.00,,---,0.00,VWS V14.01,2013-01-26 14:05:00,
2013-01-26 06:10:00,57.8,56.7,29.95,SSE,164,0.0,0.0,96,0.00,,---,0.00,VWS V14.01,2013-01-26 14:10:00,
2013-01-26 06:15:00,57.8,56.7,29.94,SSE,164,0.0,0.0,96,0.00,,---,0.00,VWS V14.01,2013-01-26 14:15:00,
2013-01-26 06:20:00,57.7,56.6,29.94,SSE,164,0.0,0.0,96,0.00,,---,0.00,VWS V14.01,2013-01-26 14:20:00,
2013-01-26 06:25:00,57.8,56.7,29.95,SSE,164,0.0,0.0,96,0.00,,---,0.00,VWS V14.01,2013-01-26 14:25:00,
2013-01-26 06:30:00,57.8,56.7,29.95,SSE,164,0.0,0.0,96,0.00,,---,0.00,VWS V14.01,2013-01-26 14:30:00,
2013-01-26 06:35:00,57.8,56.7,29.95,SSE,164,0.0,0.0,96,0.00,,---,0.00,VWS V14.01,2013-01-26 14:35:00,
2013-01-26 06:40:00,57.8,56.7,29.95,SSE,164,0.0,0.0,96,0.00,,---,0.00,VWS V14.01,2013-01-26 14:40:00,
2013-01-26 06:45:00,57.8,56.7,29.95,SSE,164,0.0,0.0,96,0.00,,---,0.00,VWS V14.01,2013-01-26 14:45:00,
2013-01-26 06:50:00,57.9,56.8,29.95,SSE,164,0.0,0.0,96,0.00,,---,0.00,VWS V14.01,2013-01-26 14:50:00,
2013-01-26 06:55:00,57.9,56.8,29.95,SSE,164,0.0,0.0,96,0.00,,---,0.00,VWS V14.01,2013-01-26 14:55:00,
2013-01-26 07:00:00,57.9,56.8,29.95,SSE,164,0.0,0.0,96,0.00,,---,0.00,VWS V14.01,2013-01-26 15:00:00,
2013-01-26 07:05:00,57.9,56.8,29.95,SSE,164,0.0,0.0,96,0.00,,---,0.00,VWS V14.01,2013-01-26 15:05:00,
2013-01-26 07:10:00,57.9,56.8,29.95,SSE,164,0.0,0.0,96,0.00,,---,0.00,VWS V14.01,2013-01-26 15:10:00,
2013-01-26 07:15:00,57.9,56.8,29.95,SSE,164,0.0,0.0,96,0.00,,---,0.00,VWS V14.01,2013-01-26 15:15:00,
2013-01-26 07:20:00,57.9,56.8,29.96,SSE,164,0.0,0.0,96,0.00,,---,0.00,VWS V14.01,2013-01-26 15:20:00,
2013-01-26 07:25:00,57.9,56.8,29.96,SSE,164,0.0,0.0,96,0.00,,---,0.00,VWS V14.01,2013-01-26 15:25:00,
2013-01-26 07:30:00,57.9,56.8,29.96,SSE,164,0.0,0.0,96,0.00,,---,0.00,VWS V14.01,2013-01-26 15:30:00,
2013-01-26 07:35:00,57.9,56.8,29.96,SSE,164,0.0,0.0,96,0.00,,---,0.00,VWS V14.01,2013-01-26 15:35:00,
2013-01-26 07:40:00,58.0,57.2,29.96,SSE,164,0.0,0.0,97,0.00,,---,0.00,VWS V14.01,2013-01-26 15:40:00,
2013-01-26 07:45:00,58.0,57.2,29.96,SSE,164,0.0,0.0,97,0.00,,---,0.00,VWS V14.01,2013-01-26 15:45:00,
2013-01-26 07:50:00,58.1,57.3,29.96,SSE,164,0.0,0.0,97,0.00,,---,0.00,VWS V14.01,2013-01-26 15:50:00,
2013-01-26 07:55:00,58.2,57.4,29.96,SSE,164,0.0,0.0,97,0.00,,---,0.00,VWS V14.01,2013-01-26 15:55:00,
2013-01-26 08:00:00,58.2,57.4,29.96,SSE,164,0.0,0.0,97,0.00,,---,0.00,VWS V14.01,2013-01-26 16:00:00,
2013-01-26 08:05:00,58.3,57.5,29.96,SSE,164,0.0,0.0,97,0.00,,---,0.00,VWS V14.01,2013-01-26 16:05:00,
2013-01-26 08:10:00,58.3,57.5,29.97,SSE,164,0.0,0.0,97,0.00,,---,0.00,VWS V14.01,2013-01-26 16:10:00,
2013-01-26 08:15:00,58.4,57.6,29.97,SSE,164,0.0,0.0,97,0.00,,---,0.00,VWS V14.01,2013-01-26 16:15:00,
2013-01-26 08:20:00,58.5,57.7,29.97,SSE,164,0.0,0.0,97,0.01,,---,0.01,VWS V14.01,2013-01-26 16:20:00,
2013-01-26 08:25:00,58.5,57.4,29.97,SSE,164,0.0,0.0,96,0.01,,---,0.01,VWS V14.01,2013-01-26 16:25:00,
2013-01-26 08:30:00,58.4,57.3,29.97,SSE,164,0.0,0.0,96,0.01,,---,0.01,VWS V14.01,2013-01-26 16:30:00,
2013-01-26 08:35:00,58.5,57.7,29.97,SSE,164,0.0,0.0,97,0.01,,---,0.01,VWS V14.01,2013-01-26 16:35:00,
2013-01-26 09:02:00,59.0,58.2,29.98,SSE,164,0.0,0.0,97,0.02,,---,0.02,VWS V14.01,2013-01-26 17:02:00,
2013-01-26 09:07:00,59.1,58.2,29.98,SSE,164,0.0,0.0,97,0.02,,---,0.02,VWS V14.01,2013-01-26 17:07:00,
2013-01-26 09:12:00,59.3,58.5,29.98,SSE,164,0.0,0.0,97,0.03,,---,0.03,VWS V14.01,2013-01-26 17:12:00,
2013-01-26 09:17:00,59.4,58.5,29.98,SSE,164,0.0,0.0,97,0.03,,---,0.03,VWS V14.01,2013-01-26 17:17:00,
2013-01-26 09:22:00,59.7,58.8,29.98,SSE,164,0.0,0.0,97,0.03,,---,0.03,VWS V14.01,2013-01-26 17:22:00,
2013-01-26 09:27:00,59.8,59.0,29.98,SSE,164,0.0,0.0,97,0.04,,---,0.04,VWS V14.01,2013-01-26 17:27:00,
2013-01-26 09:32:00,59.8,59.0,29.99,SSE,164,0.0,0.0,97,0.04,,---,0.05,VWS V14.01,2013-01-26 17:32:00,
2013-01-26 09:37:00,59.9,59.0,29.99,SSE,164,0.0,0.0,97,0.04,,---,0.05,VWS V14.01,2013-01-26 17:37:00,
2013-01-26 09:42:00,60.1,59.2,29.99,SSE,164,0.0,0.0,97,0.05,,---,0.06,VWS V14.01,2013-01-26 17:42:00,
2013-01-26 09:47:00,60.2,59.3,29.99,SSE,164,0.0,0.0,97,0.05,,---,0.06,VWS V14.01,2013-01-26 17:47:00,
2013-01-26 09:52:00,60.4,59.5,29.99,SSE,164,0.0,0.0,97,0.05,,---,0.06,VWS V14.01,2013-01-26 17:52:00,
2013-01-26 09:57:00,60.3,59.5,29.99,SSE,164,0.0,0.0,97,0.06,,---,0.07,VWS V14.01,2013-01-26 17:57:00,
2013-01-26 10:02:00,60.3,59.5,29.99,SSE,164,0.0,0.0,97,0.03,,---,0.07,VWS V14.01,2013-01-26 18:02:00,
2013-01-26 10:07:00,60.1,59.0,29.99,SSE,164,0.0,0.0,96,0.03,,---,0.07,VWS V14.01,2013-01-26 18:07:00,
2013-01-26 10:12:00,59.9,58.8,29.99,SSE,164,0.0,0.0,96,0.03,,---,0.07,VWS V14.01,2013-01-26 18:12:00,
2013-01-26 10:17:00,59.6,58.5,29.99,SSE,164,0.0,1.0,96,0.04,,---,0.08,VWS V14.01,2013-01-26 18:17:00,
2013-01-26 10:22:00,59.7,58.6,29.99,SSE,164,0.0,1.0,96,0.04,,---,0.08,VWS V14.01,2013-01-26 18:22:00,
2013-01-26 10:27:00,59.9,59.0,29.99,SSE,164,0.0,1.0,97,0.04,,---,0.08,VWS V14.01,2013-01-26 18:27:00,
2013-01-26 10:32:00,60.1,59.2,29.99,SSE,164,0.0,0.0,97,0.04,,---,0.08,VWS V14.01,2013-01-26 18:32:00,
2013-01-26 10:37:00,60.5,59.7,29.99,SSE,164,0.0,1.0,97,0.04,,---,0.08,VWS V14.01,2013-01-26 18:37:00,
2013-01-26 10:42:00,60.4,59.3,29.99,SSE,164,0.0,1.0,96,0.04,,---,0.08,VWS V14.01,2013-01-26 18:42:00,
2013-01-26 10:47:00,60.3,59.2,29.99,SSE,164,0.0,1.0,96,0.04,,---,0.08,VWS V14.01,2013-01-26 18:47:00,
2013-01-26 10:52:00,60.6,59.8,29.98,SSE,164,0.0,1.0,97,0.04,,---,0.08,VWS V14.01,2013-01-26 18:52:00,
2013-01-26 10:57:00,60.4,59.3,29.99,SSE,164,0.0,1.0,96,0.04,,---,0.08,VWS V14.01,2013-01-26 18:57:00,
2013-01-26 11:02:00,60.6,59.5,29.98,ESE,111,0.0,5.0,96,0.01,,---,0.08,VWS V14.01,2013-01-26 19:02:00,
2013-01-26 11:07:00,60.6,59.5,29.98,ESE,120,0.0,5.0,96,0.01,,---,0.08,VWS V14.01,2013-01-26 19:07:00,
2013-01-26 11:12:00,60.8,59.7,29.97,East,84,0.0,5.0,96,0.01,,---,0.08,VWS V14.01,2013-01-26 19:12:00,
2013-01-26 11:17:00,61.3,60.4,29.97,ENE,70,0.0,5.0,97,0.01,,---,0.08,VWS V14.01,2013-01-26 19:17:00,
2013-01-26 11:22:00,61.9,60.8,29.97,East,79,0.0,5.0,96,0.01,,---,0.08,VWS V14.01,2013-01-26 19:22:00,
2013-01-26 11:27:00,62.6,61.2,29.97,ESE,119,1.0,5.0,95,0.01,,---,0.08,VWS V14.01,2013-01-26 19:27:00,
2013-01-26 11:32:00,62.2,59.8,29.97,ESE,103,0.0,6.0,92,0.00,,---,0.08,VWS V14.01,2013-01-26 19:32:00,
2013-01-26 11:37:00,62.4,60.0,29.96,ESE,115,0.0,6.0,92,0.00,,---,0.08,VWS V14.01,2013-01-26 19:37:00,
2013-01-26 11:42:00,62.7,59.7,29.96,SSE,161,0.0,6.0,90,0.00,,---,0.08,VWS V14.01,2013-01-26 19:42:00,
2013-01-26 11:47:00,62.7,59.7,29.96,ESE,119,1.0,6.0,90,0.00,,---,0.08,VWS V14.01,2013-01-26 19:47:00,
2013-01-26 11:52:00,62.8,59.5,29.96,SE,130,1.0,6.0,89,0.00,,---,0.08,VWS V14.01,2013-01-26 19:52:00,
2013-01-26 11:57:00,63.2,59.9,29.96,East,101,0.0,6.0,89,0.00,,---,0.08,VWS V14.01,2013-01-26 19:57:00,
2013-01-26 12:02:00,63.6,59.7,29.96,ESE,106,0.0,1.0,87,0.00,,---,0.08,VWS V14.01,2013-01-26 20:02:00,
2013-01-26 12:07:00,64.5,60.2,29.96,SE,131,1.0,4.0,86,0.00,,---,0.08,VWS V14.01,2013-01-26 20:07:00,
2013-01-26 12:12:00,64.5,59.6,29.96,SE,138,0.0,4.0,84,0.00,,---,0.08,VWS V14.01,2013-01-26 20:12:00,
2013-01-26 12:17:00,64.4,60.1,29.96,ESE,119,0.0,4.0,86,0.00,,---,0.08,VWS V14.01,2013-01-26 20:17:00,
2013-01-26 12:22:00,64.3,59.7,29.96,SSE,155,0.0,4.0,85,0.00,,---,0.08,VWS V14.01,2013-01-26 20:22:00,
2013-01-26 12:27:00,63.9,59.6,29.95,SSE,155,0.0,4.0,86,0.00,,---,0.08,VWS V14.01,2013-01-26 20:27:00,
2013-01-26 12:32:00,64.0,60.1,29.95,SSE,155,0.0,1.0,87,0.00,,---,0.08,VWS V14.01,2013-01-26 20:32:00,
2013-01-26 12:37:00,64.0,60.4,29.95,SSE,154,0.0,1.0,88,0.00,,---,0.08,VWS V14.01,2013-01-26 20:37:00,
2013-01-26 12:42:00,64.4,60.5,29.95,SSE,154,0.0,1.0,87,0.00,,---,0.08,VWS V14.01,2013-01-26 20:42:00,
2013-01-26 12:47:00,64.5,59.9,29.95,SE,138,1.0,1.0,85,0.00,,---,0.08,VWS V14.01,2013-01-26 20:47:00,
2013-01-26 12:52:00,64.1,59.2,29.95,South,183,0.0,2.0,84,0.00,,---,0.08,VWS V14.01,2013-01-26 20:52:00,
2013-01-26 12:57:00,64.0,59.7,29.94,South,183,0.0,2.0,86,0.00,,---,0.08,VWS V14.01,2013-01-26 20:57:00,
2013-01-26 13:02:00,64.0,59.7,29.94,South,188,0.0,0.0,86,0.00,,---,0.08,VWS V14.01,2013-01-26 21:02:00,
2013-01-26 13:07:00,64.1,60.2,29.94,South,188,0.0,0.0,87,0.00,,---,0.08,VWS V14.01,2013-01-26 21:07:00,
2013-01-26 13:12:00,64.1,60.2,29.94,SSW,192,0.0,2.0,87,0.00,,---,0.08,VWS V14.01,2013-01-26 21:12:00,
2013-01-26 13:17:00,64.1,60.2,29.94,NNW,340,0.0,3.0,87,0.00,,---,0.08,VWS V14.01,2013-01-26 21:17:00,
2013-01-26 13:22:00,64.1,59.5,29.94,West,271,0.0,3.0,85,0.00,,---,0.08,VWS V14.01,2013-01-26 21:22:00,
2013-01-26 13:27:00,63.9,59.6,29.94,NNW,331,2.0,3.0,86,0.00,,---,0.08,VWS V14.01,2013-01-26 21:27:00,
2013-01-26 13:32:00,63.4,59.5,29.94,NE,52,0.0,2.0,87,0.00,,---,0.08,VWS V14.01,2013-01-26 21:32:00,
2013-01-26 13:37:00,62.6,58.7,29.95,WSW,253,0.0,5.0,87,0.00,,---,0.08,VWS V14.01,2013-01-26 21:37:00,
2013-01-26 13:42:00,62.2,58.6,29.95,ESE,117,1.0,5.0,88,0.00,,---,0.08,VWS V14.01,2013-01-26 21:42:00,
2013-01-26 13:47:00,61.8,58.5,29.94,East,95,1.0,5.0,89,0.00,,---,0.08,VWS V14.01,2013-01-26 21:47:00,
2013-01-26 13:52:00,61.5,58.5,29.94,SE,140,0.0,5.0,90,0.00,,---,0.08,VWS V14.01,2013-01-26 21:52:00,
2013-01-26 13:57:00,61.3,59.0,29.95,North,355,1.0,5.0,92,0.01,,---,0.09,VWS V14.01,2013-01-26 21:57:00,
2013-01-26 14:02:00,61.2,58.9,29.95,SSW,193,0.0,2.0,92,0.01,,---,0.09,VWS V14.01,2013-01-26 22:02:00,
2013-01-26 14:07:00,61.0,59.0,29.95,SSE,156,0.0,6.0,93,0.01,,---,0.09,VWS V14.01,2013-01-26 22:07:00,
2013-01-26 14:12:00,60.9,58.9,29.95,West,271,2.0,6.0,93,0.01,,---,0.09,VWS V14.01,2013-01-26 22:12:00,
2013-01-26 14:17:00,60.7,58.7,29.95,South,169,0.0,6.0,93,0.01,,---,0.09,VWS V14.01,2013-01-26 22:17:00,
2013-01-26 14:22:00,60.8,59.1,29.95,South,174,0.0,6.0,94,0.01,,---,0.09,VWS V14.01,2013-01-26 22:22:00,
2013-01-26 14:27:00,60.7,59.0,29.95,SSE,167,0.0,6.0,94,0.01,,---,0.09,VWS V14.01,2013-01-26 22:27:00,
2013-01-26 14:32:00,60.7,59.0,29.95,SSE,167,0.0,1.0,94,0.01,,---,0.09,VWS V14.01,2013-01-26 22:32:00,
2013-01-26 14:37:00,60.9,59.2,29.95,SE,130,0.0,2.0,94,0.01,,---,0.09,VWS V14.01,2013-01-26 22:37:00,
2013-01-26 14:42:00,60.9,59.2,29.95,SE,144,4.0,5.0,94,0.01,,---,0.09,VWS V14.01,2013-01-26 22:42:00,
2013-01-26 14:47:00,60.9,58.9,29.95,ESE,119,0.0,5.0,93,0.01,,---,0.09,VWS V14.01,2013-01-26 22:47:00,
2013-01-26 14:52:00,61.0,59.0,29.95,South,179,0.0,5.0,93,0.01,,---,0.09,VWS V14.01,2013-01-26 22:52:00,
2013-01-26 14:57:00,61.2,59.2,29.95,WSW,249,0.0,5.0,93,0.01,,---,0.09,VWS V14.01,2013-01-26 22:57:00,
2013-01-26 15:02:00,61.3,59.0,29.95,South,169,0.0,1.0,92,0.00,,---,0.09,VWS V14.01,2013-01-26 23:02:00,
2013-01-26 15:07:00,61.7,59.7,29.95,SE,146,0.0,1.0,93,0.00,,---,0.09,VWS V14.01,2013-01-26 23:07:00,
2013-01-26 15:12:00,61.8,58.8,29.95,SSE,160,0.0,6.0,90,0.00,,---,0.09,VWS V14.01,2013-01-26 23:12:00,
2013-01-26 15:17:00,61.9,58.9,29.95,South,169,0.0,6.0,90,0.00,,---,0.09,VWS V14.01,2013-01-26 23:17:00,
2013-01-26 15:22:00,62.1,58.8,29.95,SSW,193,0.0,6.0,89,0.00,,---,0.09,VWS V14.01,2013-01-26 23:22:00,
2013-01-26 15:27:00,62.3,59.0,29.95,SSW,193,0.0,6.0,89,0.00,,---,0.09,VWS V14.01,2013-01-26 23:27:00,
2013-01-26 15:32:00,62.3,58.7,29.95,SE,139,0.0,4.0,88,0.00,,---,0.09,VWS V14.01,2013-01-26 23:32:00,
2013-01-26 15:37:00,62.3,58.7,29.95,SE,139,0.0,4.0,88,0.00,,---,0.09,VWS V14.01,2013-01-26 23:37:00,
2013-01-26 15:42:00,62.3,58.4,29.95,SE,144,1.0,5.0,87,0.00,,---,0.09,VWS V14.01,2013-01-26 23:42:00,
2013-01-26 15:47:00,62.2,58.3,29.95,SSE,163,4.0,6.0,87,0.00,,---,0.09,VWS V14.01,2013-01-26 23:47:00,
2013-01-26 15:52:00,62.2,58.3,29.95,SSW,194,0.0,6.0,87,0.00,,---,0.09,VWS V14.01,2013-01-26 23:52:00,
2013-01-26 15:57:00,62.2,58.6,29.95,South,182,0.0,6.0,88,0.00,,---,0.09,VWS V14.01,2013-01-26 23:57:00,
2013-01-26 16:02:00,62.2,58.6,29.95,SW,223,0.0,1.0,88,0.00,,---,0.09,VWS V14.01,2013-01-27 00:02:00,
2013-01-26 16:07:00,62.2,58.3,29.95,SE,131,0.0,5.0,87,0.00,,---,0.09,VWS V14.01,2013-01-27 00:07:00,
2013-01-26 16:12:00,62.2,58.3,29.95,SE,131,0.0,5.0,87,0.00,,---,0.09,VWS V14.01,2013-01-27 00:12:00,
2013-01-26 16:17:00,62.2,58.3,29.95,East,95,0.0,5.0,87,0.00,,---,0.09,VWS V14.01,2013-01-27 00:17:00,
2013-01-26 16:22:00,62.2,58.3,29.95,East,95,0.0,5.0,87,0.00,,---,0.09,VWS V14.01,2013-01-27 00:22:00,
2013-01-26 16:27:00,62.3,58.4,29.95,East,95,0.0,5.0,87,0.00,,---,0.09,VWS V14.01,2013-01-27 00:27:00,
2013-01-26 16:32:00,62.2,58.3,29.95,East,95,0.0,0.0,87,0.00,,---,0.09,VWS V14.01,2013-01-27 00:32:00,
2013-01-26 16:37:00,62.1,58.5,29.95,East,95,0.0,1.0,88,0.00,,---,0.09,VWS V14.01,2013-01-27 00:37:00,
2013-01-26 16:41:00,62.0,58.4,29.96,East,95,0.0,1.0,88,0.00,,---,0.09,VWS V14.01,2013-01-27 00:41:00,
2013-01-26 16:46:00,61.8,57.9,29.96,East,95,0.0,1.0,87,0.00,,---,0.09,VWS V14.01,2013-01-27 00:46:00,
2013-01-26 16:52:00,61.5,57.6,29.96,SSW,213,0.0,1.0,87,0.00,,---,0.09,VWS V14.01,2013-01-27 00:52:00,
2013-01-26 16:56:00,61.3,57.7,29.96,SSE,149,0.0,1.0,88,0.00,,---,0.09,VWS V14.01,2013-01-27 00:56:00,
2013-01-26 17:01:00,61.0,57.1,29.97,ESE,106,1.0,4.0,87,0.00,,---,0.09,VWS V14.01,2013-01-27 01:01:00,
2013-01-26 17:06:00,60.6,56.7,29.97,South,179,0.0,4.0,87,0.00,,---,0.09,VWS V14.01,2013-01-27 01:06:00,
2013-01-26 17:11:00,60.2,56.3,29.96,NNE,32,0.0,4.0,87,0.00,,---,0.09,VWS V14.01,2013-01-27 01:11:00,
2013-01-26 17:16:00,59.8,55.9,29.97,North,11,0.0,4.0,87,0.00,,---,0.09,VWS V14.01,2013-01-27 01:16:00,
2013-01-26 17:21:00,59.4,55.5,29.97,North,10,0.0,4.0,87,0.00,,---,0.09,VWS V14.01,2013-01-27 01:21:00,
2013-01-26 17:26:00,59.1,55.2,29.97,North,10,0.0,4.0,87,0.00,,---,0.09,VWS V14.01,2013-01-27 01:26:00,
2013-01-26 17:32:00,58.8,55.0,29.97,SSE,159,0.0,0.0,87,0.00,,---,0.09,VWS V14.01,2013-01-27 01:32:00,
2013-01-26 17:37:00,58.4,54.9,29.97,SSE,159,0.0,1.0,88,0.00,,---,0.09,VWS V14.01,2013-01-27 01:37:00,
2013-01-26 17:41:00,58.1,54.6,29.98,SSE,168,0.0,2.0,88,0.00,,---,0.09,VWS V14.01,2013-01-27 01:41:00,
2013-01-26 17:46:00,57.8,54.6,29.98,South,184,0.0,2.0,89,0.00,,---,0.09,VWS V14.01,2013-01-27 01:46:00,
2013-01-26 17:51:00,57.6,54.4,29.98,SE,140,0.0,2.0,89,0.00,,---,0.09,VWS V14.01,2013-01-27 01:51:00,
2013-01-26 17:56:00,57.3,54.1,29.98,ESE,107,0.0,2.0,89,0.00,,---,0.09,VWS V14.01,2013-01-27 01:56:00,
2013-01-26 18:01:00,57.2,54.3,29.98,SSE,157,0.0,1.0,90,0.00,,---,0.09,VWS V14.01,2013-01-27 02:01:00,
2013-01-26 18:06:00,56.9,54.0,29.99,SSE,165,0.0,2.0,90,0.00,,---,0.09,VWS V14.01,2013-01-27 02:06:00,
2013-01-26 18:11:00,56.8,53.9,29.99,SSE,165,0.0,2.0,90,0.00,,---,0.09,VWS V14.01,2013-01-27 02:11:00,
2013-01-26 18:16:00,56.6,53.7,29.99,SSE,165,0.0,2.0,90,0.00,,---,0.09,VWS V14.01,2013-01-27 02:16:00,
2013-01-26 18:21:00,56.4,53.8,29.99,South,178,0.0,2.0,91,0.00,,---,0.09,VWS V14.01,2013-01-27 02:21:00,
2013-01-26 18:26:00,56.3,53.7,29.99,SE,136,0.0,2.0,91,0.00,,---,0.09,VWS V14.01,2013-01-27 02:26:00,
2013-01-26 18:31:00,56.1,53.5,29.99,WSW,237,0.0,2.0,91,0.00,,---,0.09,VWS V14.01,2013-01-27 02:31:00,
2013-01-26 18:36:00,56.0,53.7,30.00,SE,138,0.0,2.0,92,0.00,,---,0.09,VWS V14.01,2013-01-27 02:36:00,
2013-01-26 18:41:00,56.0,53.7,30.00,SW,229,0.0,2.0,92,0.00,,---,0.09,VWS V14.01,2013-01-27 02:41:00,
2013-01-26 18:46:00,55.8,53.8,30.00,South,170,0.0,2.0,93,0.00,,---,0.09,VWS V14.01,2013-01-27 02:46:00,
2013-01-26 18:51:00,55.8,53.8,30.00,South,170,0.0,2.0,93,0.00,,---,0.09,VWS V14.01,2013-01-27 02:51:00,
2013-01-26 18:56:00,55.7,53.7,30.00,South,170,0.0,2.0,93,0.00,,---,0.09,VWS V14.01,2013-01-27 02:56:00,
2013-01-26 19:01:00,55.4,53.4,30.00,SSW,205,1.0,4.0,93,0.00,,---,0.09,VWS V14.01,2013-01-27 03:01:00,
2013-01-26 19:06:00,55.1,53.1,30.01,SSE,165,4.0,5.0,93,0.00,,---,0.09,VWS V14.01,2013-01-27 03:06:00,
2013-01-26 19:11:00,54.8,53.1,30.01,SSE,163,0.0,5.0,94,0.00,,---,0.09,VWS V14.01,2013-01-27 03:11:00,
2013-01-26 19:16:00,54.4,52.7,30.01,WSW,248,0.0,5.0,94,0.00,,---,0.09,VWS V14.01,2013-01-27 03:16:00,
2013-01-26 19:21:00,54.2,52.8,30.01,SSE,167,4.0,5.0,95,0.00,,---,0.09,VWS V14.01,2013-01-27 03:21:00,
2013-01-26 19:26:00,54.0,52.6,30.01,SSE,157,0.0,5.0,95,0.00,,---,0.09,VWS V14.01,2013-01-27 03:26:00,
2013-01-26 19:31:00,53.9,52.5,30.01,SSE,150,0.0,5.0,95,0.00,,---,0.09,VWS V14.01,2013-01-27 03:31:00,
2013-01-26 19:36:00,53.9,52.5,30.01,SSE,150,0.0,5.0,95,0.00,,---,0.09,VWS V14.01,2013-01-27 03:36:00,
2013-01-26 19:41:00,53.9,52.8,30.02,South,181,0.0,5.0,96,0.00,,---,0.09,VWS V14.01,2013-01-27 03:41:00,
2013-01-26 19:46:00,53.9,52.8,30.02,South,181,0.0,5.0,96,0.00,,---,0.09,VWS V14.01,2013-01-27 03:46:00,
2013-01-26 19:51:00,54.0,52.9,30.02,South,181,0.0,5.0,96,0.00,,---,0.09,VWS V14.01,2013-01-27 03:51:00,
2013-01-26 19:56:00,54.0,52.9,30.02,South,181,0.0,5.0,96,0.00,,---,0.09,VWS V14.01,2013-01-27 03:56:00,
2013-01-26 20:01:00,54.1,53.0,30.02,South,181,0.0,0.0,96,0.00,,---,0.09,VWS V14.01,2013-01-27 04:01:00,
2013-01-26 20:06:00,54.2,53.1,30.02,South,181,0.0,0.0,96,0.00,,---,0.09,VWS V14.01,2013-01-27 04:06:00,
2013-01-26 20:11:00,54.2,53.1,30.02,South,181,0.0,0.0,96,0.00,,---,0.09,VWS V14.01,2013-01-27 04:11:00,
2013-01-26 20:16:00,54.2,53.4,30.02,South,181,0.0,0.0,97,0.00,,---,0.09,VWS V14.01,2013-01-27 04:16:00,
2013-01-26 20:21:00,54.3,53.5,30.02,South,181,0.0,0.0,97,0.00,,---,0.09,VWS V14.01,2013-01-27 04:21:00,
2013-01-26 20:26:00,54.4,53.6,30.02,South,181,0.0,0.0,97,0.00,,---,0.09,VWS V14.01,2013-01-27 04:26:00,
2013-01-26 20:31:00,54.4,53.6,30.02,South,181,0.0,0.0,97,0.00,,---,0.09,VWS V14.01,2013-01-27 04:31:00,
2013-01-26 20:36:00,54.4,53.6,30.02,South,181,0.0,0.0,97,0.00,,---,0.09,VWS V14.01,2013-01-27 04:36:00,
2013-01-26 20:41:00,54.4,53.6,30.02,South,181,0.0,0.0,97,0.00,,---,0.09,VWS V14.01,2013-01-27 04:41:00,
2013-01-26 20:46:00,54.5,53.7,30.02,South,181,0.0,0.0,97,0.00,,---,0.09,VWS V14.01,2013-01-27 04:46:00,
2013-01-26 20:51:00,54.5,53.7,30.02,South,181,0.0,1.0,97,0.00,,---,0.09,VWS V14.01,2013-01-27 04:51:00,
2013-01-26 20:56:00,54.5,53.7,30.03,South,181,0.0,1.0,97,0.00,,---,0.09,VWS V14.01,2013-01-27 04:56:00,
2013-01-26 21:00:00,54.4,53.6,30.03,South,181,0.0,0.0,97,0.00,,---,0.09,VWS V14.01,2013-01-27 05:00:00,
2013-01-26 21:01:00,54.4,53.6,30.03,South,181,0.0,0.0,97,0.00,,---,0.09,VWS V14.01,2013-01-27 05:01:00,
2013-01-26 21:03:00,54.4,53.6,30.03,South,181,0.0,0.0,97,0.00,,---,0.09,VWS V14.01,2013-01-27 05:03:00,
2013-01-26 21:08:00,54.5,53.7,30.03,South,181,0.0,1.0,97,0.00,,---,0.09,VWS V14.01,2013-01-27 05:08:00,
2013-01-26 21:13:00,54.5,53.7,30.03,South,181,0.0,1.0,97,0.00,,---,0.09,VWS V14.01,2013-01-27 05:13:00,
2013-01-26 21:18:00,54.5,53.7,30.03,South,181,0.0,1.0,97,0.00,,---,0.09,VWS V14.01,2013-01-27 05:18:00,
2013-01-26 21:23:00,54.5,53.7,30.03,South,181,0.0,1.0,97,0.00,,---,0.09,VWS V14.01,2013-01-27 05:23:00,
2013-01-26 21:28:00,54.5,53.7,30.03,South,181,0.0,1.0,97,0.00,,---,0.09,VWS V14.01,2013-01-27 05:28:00,
2013-01-26 21:33:00,54.6,53.8,30.03,South,181,0.0,0.0,97,0.00,,---,0.09,VWS V14.01,2013-01-27 05:33:00,
2013-01-26 21:38:00,54.6,53.8,30.03,South,181,0.0,0.0,97,0.00,,---,0.09,VWS V14.01,2013-01-27 05:38:00,
2013-01-26 21:43:00,54.6,53.8,30.03,South,181,0.0,0.0,97,0.00,,---,0.09,VWS V14.01,2013-01-27 05:43:00,
2013-01-26 21:48:00,54.6,53.8,30.04,South,181,0.0,0.0,97,0.00,,---,0.09,VWS V14.01,2013-01-27 05:48:00,
2013-01-26 21:53:00,54.7,53.9,30.04,South,181,0.0,0.0,97,0.00,,---,0.09,VWS V14.01,2013-01-27 05:53:00,
2013-01-26 21:58:00,54.7,53.9,30.04,South,181,0.0,0.0,97,0.00,,---,0.09,VWS V14.01,2013-01-27 05:58:00,
2013-01-26 22:03:00,54.7,53.9,30.04,South,181,0.0,0.0,97,0.00,,---,0.09,VWS V14.01,2013-01-27 06:03:00,
2013-01-26 22:08:00,54.6,53.8,30.04,South,181,0.0,0.0,97,0.00,,---,0.09,VWS V14.01,2013-01-27 06:08:00,
2013-01-26 22:13:00,54.7,53.9,30.04,South,181,0.0,0.0,97,0.00,,---,0.09,VWS V14.01,2013-01-27 06:13:00,
2013-01-26 22:18:00,54.7,53.9,30.04,South,181,0.0,0.0,97,0.00,,---,0.09,VWS V14.01,2013-01-27 06:18:00,
2013-01-26 22:23:00,54.7,53.9,30.04,South,181,0.0,0.0,97,0.00,,---,0.09,VWS V14.01,2013-01-27 06:23:00,
2013-01-26 22:28:00,54.7,53.9,30.04,South,181,0.0,0.0,97,0.00,,---,0.09,VWS V14.01,2013-01-27 06:28:00,
2013-01-26 22:33:00,54.7,53.9,30.04,South,181,0.0,0.0,97,0.00,,---,0.09,VWS V14.01,2013-01-27 06:33:00,
2013-01-26 22:38:00,54.7,53.9,30.04,South,181,0.0,0.0,97,0.00,,---,0.09,VWS V14.01,2013-01-27 06:38:00,
2013-01-26 22:43:00,54.8,54.0,30.04,South,181,0.0,0.0,97,0.00,,---,0.09,VWS V14.01,2013-01-27 06:43:00,
2013-01-26 22:48:00,54.8,54.0,30.04,South,181,0.0,0.0,97,0.00,,---,0.09,VWS V14.01,2013-01-27 06:48:00,
2013-01-26 22:53:00,54.8,54.0,30.05,South,181,0.0,0.0,97,0.00,,---,0.09,VWS V14.01,2013-01-27 06:53:00,
2013-01-26 22:58:00,54.8,54.0,30.05,South,181,0.0,0.0,97,0.00,,---,0.09,VWS V14.01,2013-01-27 06:58:00,
2013-01-26 23:03:00,54.8,54.0,30.05,South,181,0.0,0.0,97,0.00,,---,0.09,VWS V14.01,2013-01-27 07:03:00,
2013-01-26 23:08:00,54.9,54.1,30.05,South,181,0.0,0.0,97,0.00,,---,0.09,VWS V14.01,2013-01-27 07:08:00,
2013-01-26 23:13:00,54.9,54.1,30.05,South,181,0.0,1.0,97,0.00,,---,0.09,VWS V14.01,2013-01-27 07:13:00,
2013-01-26 23:18:00,55.0,54.2,30.05,South,181,0.0,1.0,97,0.00,,---,0.09,VWS V14.01,2013-01-27 07:18:00,
2013-01-26 23:23:00,55.0,54.2,30.05,South,181,0.0,1.0,97,0.00,,---,0.09,VWS V14.01,2013-01-27 07:23:00,
2013-01-26 23:28:00,55.0,54.2,30.05,SSE,157,1.0,2.0,97,0.00,,---,0.09,VWS V14.01,2013-01-27 07:28:00,
2013-01-26 23:33:00,55.1,54.3,30.05,SSW,201,0.0,1.0,97,0.00,,---,0.09,VWS V14.01,2013-01-27 07:33:00,
2013-01-26 23:38:00,55.1,54.3,30.05,South,171,0.0,1.0,97,0.01,,---,0.10,VWS V14.01,2013-01-27 07:38:00,
2013-01-26 23:43:00,55.1,54.3,30.05,SSW,211,0.0,1.0,97,0.01,,---,0.10,VWS V14.01,2013-01-27 07:43:00,
2013-01-26 23:48:00,55.1,54.3,30.05,SSW,211,0.0,1.0,97,0.01,,---,0.10,VWS V14.01,2013-01-27 07:48:00,
2013-01-26 23:53:00,55.0,54.2,30.05,SSE,164,0.0,3.0,97,0.01,,---,0.10,VWS V14.01,2013-01-27 07:53:00,
2013-01-26 23:58:00,55.0,54.2,30.05,SSE,164,0.0,3.0,97,0.01,,---,0.10,VWS V14.01,2013-01-27 07:58:00,